Location: Artiguedieu
(43.5000°N, 0.5454°E)
Time: 10:23:40
(UTC+00:00)

Vanguard 1 Rocket - Pass Details

Date: 02 August 2021
Orbit: 650 x 4226 km, 34.3° (Epoch: 24 September)

Event Time Altitude Azimuth Distance (km) Brightness Sun altitude
Rises 07:53:13 0° 215° (SW) 8,456 12.1 31.7°
Reaches altitude 10° 08:00:13 10° 207° (SSW) 7,293 11.9 33.0°
Maximum altitude 08:19:52 35° 153° (SSE) 4,377 11.7 36.5°
Drops below altitude 10° 08:32:29 10° 94° (E) 4,776 12.3 38.7°
Sets 08:35:51 0° 86° (E) 5,358 12.2 39.3°
